Regional Weather Roundup
Issued by NWS Sioux Falls, SD

Home | Current Version | Previous Version | Text Only | Print | Product List | Glossary Off
Versions: 1 2 3 4 5 6 7 8 9 10 11 12 13 14 15 16 17 18 19 20 21 22 23 24 25 26 27 28 29 30 31 32 33 34 35 36 37 38 39 40 41 42 43 44 45 46 47 48 49 50

000
ASUS43 KFSD 171810
RWRFSD

WEATHER ROUNDUP FOR SE SOUTH DAKOTA/SW MINNESOTA/NW IOWA
NATIONAL WEATHER SERVICE SIOUX FALLS SD
100 PM CDT THU AUG 17 2017

NOTE: "FAIR" INDICATES FEW OR NO CLOUDS BELOW 12,000 FEET WITH NO
SIGNIFICANT WEATHER AND OR OBSTRUCTIONS TO VISIBILITY.


SDZ038>040-050-052>070-171900-
SOUTHEAST SOUTH DAKOTA

CITY           SKY/WX    TMP DP  RH WIND       PRES   REMARKS
BROOKINGS      SUNNY     72  61  68 NW15      29.89S
CHAMBERLAIN    SUNNY     78  56  46 CALM      29.94F
6HR MIN TEMP:  55; 6HR MAX TEMP:  79;

HURON          SUNNY     77  60  55 NW10      29.91F
6HR MIN TEMP:  55; 6HR MAX TEMP:  77;

MADISON        FAIR      72  63  73 NW17      29.91S
MITCHELL       SUNNY     77  61  57 NW13      29.93F
6HR MIN TEMP:  57; 6HR MAX TEMP:  77;

SIOUX FALLS    MOSUNNY   77  62  59 NW16G24   29.89S
6HR MIN TEMP:  61; 6HR MAX TEMP:  77;

WINNER         FAIR      85  56  37 SE5       29.94F
YANKTON        SUNNY     76  60  57 NW16      29.93F
$$

MNZ071-072-080-081-089-090-097-098-171900-
SOUTHWEST MINNESOTA

CITY           SKY/WX    TMP DP  RH WIND       PRES   REMARKS
FAIRMONT       CLOUDY    68  62  81 NW23      29.82R
JACKSON        CLOUDY    68  61  77 NW17G24   29.85S
LUVERNE        MOSUNNY   72  59  64 NW14G22   29.89R
MARSHALL       PTSUNNY   69  64  84 NW17G24   29.84F
6HR MIN TEMP:  62; 6HR MAX TEMP:  70; 6HR PCP:  0.12;

MONTEVIDEO     CLOUDY    70  70 100 N14       29.83S
PIPESTONE      MOSUNNY   73  61  64 N16G24    29.88S
REDWOOD FALLS  CLOUDY    69  62  78 NW15G23   29.80R
TRACY          CLOUDY    68  64  88 NW15G23   29.85S
WINDOM         SUNNY     66  61  82 W15G24    29.85R
WORTHINGTON    PTSUNNY   71  62  73 NW20      29.87S
$$

IAZ001>003-012>014-020>022-031-032-NEZ013-014-SDZ071-171900-
NORTHWEST IOWA

CITY           SKY/WX    TMP DP  RH WIND       PRES   REMARKS
CHEROKEE       MOSUNNY   74  63  67 NW16      29.88S
DENISON        SUNNY     75  61  60 NW15G25   29.90F
ESTHERVILLE    CLOUDY    68  62  81 NW17G24   29.83S
LE MARS        SUNNY     75  61  60 NW13G24   29.89S
ORANGE CITY    SUNNY     75  63  64 NW15G25   29.88F
SHELDON        MOSUNNY   73  63  68 NW13G21   29.86F
SIOUX CITY     SUNNY     77  61  57 NW22      29.90S
6HR MIN TEMP:  63; 6HR MAX TEMP:  77;

SPENCER        PTSUNNY   73  61  65 NW17G26   29.86R
6HR MIN TEMP:  65; 6HR MAX TEMP:  73;

STORM LAKE       N/A     72  63  73 NW14      29.88S
$$

ABBREVIATIONS USED IN REMARKS
   TC - TEMPERATURE IN CELSIUS
  WCI - WIND CHILL INDEX
   HX - HEAT INDEX
  VSB - VISIBILITY





USA.gov is the U.S. government's official web portal to all federal, state and local government web resources and services.